Regional Weather Roundup
Issued by NWS Albany, NY

Home | Current Version | Previous Version | Text Only | Print | Product List | Glossary On
Versions: 1 2 3 4 5 6 7 8 9 10 11 12 13 14 15 16 17 18 19 20 21 22 23 24 25 26 27
000
ASUS41 KALY 241710
RWRALY

NEW YORK STATE HOURLY WEATHER ROUNDUP
NATIONAL WEATHER SERVICE ALBANY NY
100 PM EDT TUE APR 24 2018

NOTE: "FAIR" INDICATES FEW OR NO CLOUDS BELOW 12,000 FEET WITH NO
SIGNIFICANT WEATHER AND/OR NO OBSTRUCTIONS TO VISIBILITY.

NYZ032-033-038>043-046>054-057>066-NYZ062>081-082-084-241800-
EAST


CITY           SKY/WX    TMP DP  RH WIND       PRES   REMARKS
ALBANY         PTSUNNY   68  22  17 S16G23    30.28F
GLENS FALLS    FAIR      66  28  24 S13G20    30.25F
POUGHKEEPSIE   FAIR      62  32  32 SW14      30.31F
NEWBURGH       MOSUNNY   63  37  39 S14       30.33F
MONTGOMERY     FAIR      66  37  34 S12G21    30.30F
WHITE PLAINS   FAIR      62  38  40 SE14G22   30.34F
ISLIP          PTSUNNY   62  41  46 S17       30.37F
NEW YORK CITY  PTSUNNY   65  34  31 S17       30.35F
CENTRAL PARK   FAIR      64  35  34 VRB6      30.37F
$$

NYZ005>009-017-018-044>046-055-056-241800-
CENTRAL


CITY           SKY/WX    TMP DP  RH WIND       PRES   REMARKS
FULTON         FAIR      68  25  19 S14       30.19F
SYRACUSE       PTSUNNY   68  24  19 S9G21     30.19F
ROME           FAIR      67  21  17 S12       30.22F
ELMIRA         FAIR      67  40  37 SW18      30.20F
BINGHAMTON     FAIR      62  27  26 S8G18     30.22F
MONTICELLO     FAIR      60  31  33 SE16G23   30.30F
$$

NYZ026>034-041>043-087-241800-
NORTH


CITY           SKY/WX    TMP DP  RH WIND       PRES   REMARKS
WATERTOWN      FAIR      66  30  26 VRB3      30.19F
FORT DRUM      NOT AVBL
OGDENSBURG     FAIR      68  38  33 SW13G18   30.19F
MASSENA        FAIR      70  43  37 SW10G22   30.18F
SARANAC LAKE   FAIR      65  21  18 SW14G21   30.20F
PLATTSBURGH    FAIR      64  33  31 SE17      30.19F
$$

NYZ001>004-010>016-019>021-085-241800-
WEST


CITY           SKY/WX    TMP DP  RH WIND       PRES   REMARKS
NIAGARA FALLS  CLOUDY    67  39  35 SW10      30.14F
BUFFALO        PTSUNNY   64  36  35 S12       30.15F
DUNKIRK        CLOUDY    62  40  44 S8        30.14F
JAMESTOWN      CLOUDY    55  40  56 S14       30.16F
WELLSVILLE     CLOUDY    56  39  53 S9        30.21F
ROCHESTER      CLOUDY    64  36  35 S14       30.18F
PENN YAN       FAIR      66  35  31 SW14      30.19F
$$

             KEY
       WCI = WIND CHILL INDEX
       VSB = VISIBILITY
       HX  = HEAT INDEX
$$




USA.gov is the U.S. government's official web portal to all federal, state and local government web resources and services.